ONEWEB-0389, 50469

Orbit data source: Space-Track

ONEWEB-0389, 50469 is a payload satellite owned by One Web (NAA) (UK) in LEO that was launched on Mon, 27 Dec 2021 UTC via a SOYUZ-2-1B launch vehicle from the Tyuratam Missile And Space Complex (TTMTR). Payload-class satellites include a variety of spacecraft equipped with specific instruments for various scientific and technological missions. These include communications satellites like Starlink; space stations such as the ISS; scientific satellites like the Hubble; Earth observation satellites from companies like Planet Labs, Umbra, and HawkEye 360; GPS; miniature CubeSats for education and research; and military/defense satellites.

Loading next visibility...
Identifier
50469, 2021-132A
Orbit
LEO
Country
Flag of UKUK
Related business
Manufacturer
One Web
Mission
Operational Commercial Communications
Bus & Motor
ARROW, Unknown motor
Mass
148 kg wet, ~140 kg dry
Launch date (UTC)
2021-12-27 (4 years ago)
Launch vehicle
SOYUZ-2-1B
Launch site
Tyuratam Missile And Space Complex (TTMTR)
Object type
Payload
Rocket body
Debris
Shape & HBR
Trap Box + 2 Pan, 6.7 m
Radar Cross Section
3.464 m², Large (>1 m²)

Expand to show TLE details & history
Last TLE update: 3 days ago

TLE from 3 days ago
0 ONEWEB-0389
1 50469U 21132A   26170.93242022  .00000023  00000-0  25174-4 0  9991
2 50469  87.9130   5.3217 0002143  81.8061 278.3314 13.17649164218445
Epoch: 2026-06-19T22:22Z
TLE epoch observation values (Epoch: 2026-06-19T22:22:41.107Z)
Latitude
0.00005°
Longitude
121.49612°
Altitude
1,196.376 km
Speed
7.256 km/s
True Right ascension
00h 21m 17s
True Declination
0° 00' 00"
Sunlit
Object was in daylight at epoch
Visualization orbit readout
Latitude
Unknown
Longitude
Unknown
Altitude
Unknown
Speed
Unknown
Apparent Right ascension
Unknown
Apparent Declination
Unknown
Sunlit
N/A
Visualization observer readout
Local Sidereal Time
21:24:44
Azimuth
Unknown
Elevation
Unknown
Doppler factor
Unknown
Orbital elements
Apogee altitude
1,192.443 km
Perigee altitude
1,189.199 km
Semi-major axis
7,568.958 km
Eccentricity
0.00021
Inclination
87.913°
RAAN
5.3217°
Arg. of periapsis
81.8061°
True anomaly
278.3071°
Mean anomaly
278.3314°
Eccentric anomaly
278.31925°
Mean motion
3.29601 °/min
Orbital period
109.22 mins
BSTAR
0.000025174
Loading maneuver chart data...
Computing Atmospheric mass density...
Loading historical data...
Loading historical data...
Loading historical data...
Loading historical data...
Loading historical data...
Loading historical data...
Loading historical data...

Documentation

Showing up to 5 results
|